Location: Arroyo de Valdeoliva
(40.1604°N, 4.9878°W)
Time: 17:59:55
(UTC+00:00)

SPOT 1/Viking Rocket - Visible Passes

Search period start: 07 March 2026 00:00
Search period end: 17 March 2026 00:00
Orbit: 773 x 789 km, 98.2° (Epoch: 7 March)

Date Brightness Start Highest point End Pass type
(mag) Time Alt. Az. Time Alt. Az. Time Alt. Az.
7 Mar 6.1 19:26:01 10° SSW 19:30:04 23° W 19:34:09 10° NW visible
8 Mar 6.9 05:58:53 10° NE 06:01:54 15° E 06:04:54 10° SE visible
8 Mar 4.8 18:52:42 10° S 18:57:37 47° W 19:02:36 10° NNW visible
9 Mar 7.1 20:04:40 10° W 20:05:18 10° W 20:05:55 10° W visible
10 Mar 6.2 19:28:45 10° SW 19:32:40 22° W 19:36:39 10° NW visible
11 Mar 6.8 06:01:17 10° NE 06:04:31 16° E 06:07:45 10° SE visible
11 Mar 4.9 18:55:20 10° S 19:00:13 44° W 19:05:09 10° NNW visible
13 Mar 6.3 19:31:29 10° SW 19:35:17 21° W 19:39:07 10° NW visible
14 Mar 6.8 06:03:42 10° NE 06:07:09 18° E 06:10:34 10° SE visible
14 Mar 5.1 18:57:58 10° SSW 19:02:48 41° W 19:07:42 10° NNW visible
16 Mar 6.5 19:34:15 10° SW 19:37:53 19° W 19:41:34 10° NW visible
